Dewpoint
41 41 43 44 46 48 50 49 49 49 50 50 51 51 52 53 54 54 53 52 52 51 49 48 43 41 40 39 39 39 38 39 36 33 34 34 33 33 35 36 36 36 35
39 40 42 44 46 46 46 46 48 47 48 47 47 47 47 48 49 49 49 48 49 46 43 42 40 39 39 38 37 36 36 37 37 33 33 33 34 35 34 34 33 31 29
38 39 40 41 42 42 42 41 42 43 43 41 40 40 40 41 43 42 42 43 42 42 41 39 39 37 36 36 36 36 36 36 35 35 33 33 33 34 34 34 32 31 29
38 38 38 40 40 40 40 40 40 39 38 37 36 36 36 36 37 38 38 37 37 37 37 37 37 36 35 35 36 34 34 33 33 33 32 32 33 34 33 32 30 30 30
37 38 38 39 38 38 38 39 39 39 38 38 37 37 37 37 37 37 36 36 36 35 36 36 36 37 36 36 34 33 33 32 32 32 32 32 31 30 29 29 29 27 25
36 37 37 37 37 38 38 38 38 38 39 39 38 38 38 38 39 38 36 35 34 34 33 33 34 37 38 38 38 37 34 33 32 32 31 27 26 26 27 25 25 23 21
35 36 36 36 35 36 36 36 36 36 36 36 37 38 38 38 39 38 37 33 33 32 32 32 33 34 34 33 37 37 36 35 33 31 28 27 24 24 26 25 24 23 23
35 35 35 35 35 35 36 35 35 35 34 34 34 35 36 37 38 37 35 31 31 32 32 32 31 31 32 31 31 31 30 29 28 27 26 26 25 26 25 24 25 25 25
35 34 34 34 35 35 35 34 34 33 33 33 33 33 33 34 36 35 31 28 29 30 31 31 31 31 31 28 26 27 26 25 26 28 26 26 27 27 27 25 21 18 20
35 35 35 36 35 34 34 33 34 32 32 32 32 32 32 28 31 28 29 29 28 27 25 24 22 22 24 25 26 25 25 22 23 21 20 22 23 21 23 23 22 12 14
36 36 35 35 35 34 34 33 33 31 29 23 28 31 31 27 27 29 26 23 20 19 18 18 23 25 27 27 27 24 23 24 22 20 20 19 18 17 18 20 22 17 12
35 35 35 35 35 34 33 32 27 27 21 19 19 19 21 24 27 27 27 25 25 21 20 22 26 27 25 25 24 23 23 22 20 18 15 13 16 19 22 23 26 26 27
31 30 29 27 27 27 21 17 16 15 15 14 14 14 11 12 18 22 23 24 24 23 23 24 24 23 22 19 19 19 20 17 15 15 15 18 19 19 19 19 21 27 27
19 15 14 14 14 14 15 14 14 13 12 10 9 10 10 12 17 21 22 22 25 24 24 23 21 19 14 14 14 13 14 14 15 19 20 20 20 18 19 20 19 24 24
15 15 15 14 11 17 23 24 16 18 19 11 15 13 13 16 21 22 22 22 22 23 22 19 16 10 12 12 13 14 15 16 19 19 21 21 20 21 22 23 24 24 23
14 15 15 16 18 20 21 21 24 24 22 22 21 19 19 19 21 22 23 23 24 23 18 15 11 14 15 14 15 17 20 21 21 22 23 22 22 22 22 22 24 23 22
15 16 17 18 18 18 17 17 18 21 21 20 19 18 18 20 21 22 23 23 23 21 12 12 14 15 16 17 17 15 20 21 23 23 22 22 23 22 21 21 21 21 20
17 24 17 17 15 14 11 7 6 4 3 4 15 13 16 18 19 21 22 21 15 11 12 10 14 16 16 15 14 16 20 22 22 22 22 22 22 22 21 21 21 20 20
17 17 16 14 11 10 8 6 5 4 3 4 6 9 13 13 16 19 20 17 13 11 11 13 15 15 14 13 14 13 20 21 21 22 22 22 21 21 21 21 20 22 23
18 21 18 12 12 7 7 6 5 4 4 4 5 6 8 11 14 15 14 12 11 11 11 14 15 15 13 9 10 11 14 17 17 15 16 17 19 19 19 20 20 20 19
18 18 19 11 10 7 7 6 6 4 4 5 6 7 13 15 15 14 11 10 10 11 13 15 14 12 10 10 10 12 14 17 17 16 16 17 17 17 19 20 20 20 20
18 18 16 10 8 7 7 7 6 5 5 6 7 8 14 12 12 10 10 11 12 12 14 15 13 12 12 11 12 12 13 15 16 15 15 17 18 19 20 21 20 20 20
18 17 14 9 8 9 10 8 6 5 6 7 8 8 8 9 9 10 11 12 13 14 15 16 15 14 13 14 13 14 16 17 17 17 17 17 18 18 19 18 18 18 18
17 15 11 7 8 7 10 8 5 8 9 9 8 8 10 10 11 12 13 13 16 13 16 16 16 15 16 15 16 16 17 18 19 19 18 18 18 18 18 17 17 18 19
16 12 8 7 7 9 6 7 6 7 7 7 8 10 11 13 14 15 15 15 15 15 15 17 17 16 15 14 15 17 19 23 24 24 23 21 19 18 18 18 18 19 20
14 10 7 6 7 6 7 5 6 8 9 15 16 16 16 17 17 16 16 18 20 20 16 18 18 16 16 17 19 21 25 27 27 29 29 28 26 25 24 24 24 24 25
Lifted_Index
12 12 11 10 9 8 8 9 9 9 9 8 7 6 5 4 2 1 -1 -1 -2 -2 -1 -0 0 1 1 2 1 1 2 3 3 5 7 8 9 11 12 13 14 14 13
11 11 11 10 10 9 9 9 10 9 9 8 8 7 6 4 3 1 0 -0 -1 -1 -1 -0 1 1 2 2 2 2 3 4 5 5 6 8 9 10 12 13 13 13 12
11 11 10 10 10 10 10 10 10 9 9 9 8 8 7 5 4 2 2 1 0 -0 -0 -0 1 1 2 3 3 4 5 6 6 6 7 8 9 10 11 12 12 13 13
10 10 10 10 10 10 10 10 10 9 9 9 8 8 7 6 5 4 3 2 1 1 0 1 1 2 3 4 5 6 7 7 8 7 8 8 9 10 11 11 12 14 16
10 10 10 10 10 10 10 10 10 10 9 9 9 8 8 7 6 5 4 3 3 2 2 3 4 5 6 7 8 8 8 8 8 8 8 9 10 11 12 13 14 16 17
11 11 11 11 11 11 11 10 10 10 10 9 9 8 8 8 8 7 6 5 5 5 5 6 7 8 9 9 10 10 10 10 10 10 10 11 13 14 16 16 17 17 17
11 11 12 11 11 11 11 10 10 10 9 9 9 9 9 10 10 10 10 9 8 8 8 9 9 10 10 11 11 12 13 14 14 14 14 15 17 18 19 19 19 19 18
11 11 11 11 11 11 11 10 10 10 10 10 10 10 11 11 12 12 12 11 11 10 11 11 11 12 13 14 14 15 16 17 18 18 18 19 19 20 20 20 20 19 19
10 10 11 11 11 11 11 10 10 11 11 11 11 12 12 12 13 13 13 13 13 13 13 14 14 16 17 18 18 18 18 19 20 20 20 20 21 21 21 21 20 19 18
10 11 11 11 11 11 11 11 12 12 13 13 13 13 14 14 15 15 16 16 16 16 17 17 18 19 20 21 20 20 20 20 20 20 21 21 21 21 21 21 19 17 16
11 11 11 12 12 13 13 14 14 15 15 15 15 16 16 17 17 18 19 19 19 19 19 20 20 21 21 21 21 21 21 21 21 21 21 21 21 20 20 20 18 16 15
12 12 12 13 14 15 15 16 16 16 16 17 17 17 18 19 19 20 20 20 20 20 20 20 21 21 22 22 22 22 22 21 21 21 20 20 19 19 18 18 17 16 15
14 14 14 15 15 16 17 17 17 17 16 16 16 17 17 19 20 21 21 21 21 21 21 22 22 22 22 22 22 22 22 21 21 20 19 18 18 17 16 16 15 15 14
14 14 15 15 16 16 17 17 17 17 17 16 17 17 17 18 20 21 21 22 22 22 22 22 22 22 22 22 22 22 21 21 19 18 17 17 16 15 14 14 14 13 12
14 14 15 15 15 16 16 17 17 17 17 18 18 18 18 19 20 21 22 22 22 23 22 22 22 21 21 21 21 21 20 19 18 17 16 15 14 13 13 13 13 12 11
14 14 15 15 15 15 16 16 17 18 18 19 20 20 20 21 21 22 22 23 23 23 22 21 21 21 20 20 20 20 19 18 17 16 15 13 12 12 12 12 12 11 11
14 14 15 15 15 15 15 15 16 17 18 19 20 21 21 22 22 22 23 23 23 22 21 21 20 20 20 20 20 19 18 17 16 15 14 13 12 11 11 11 11 10 10
14 15 15 15 15 15 15 15 16 16 16 18 19 20 21 22 22 22 22 22 22 21 21 21 20 20 20 20 20 19 18 17 16 15 13 12 12 11 11 10 10 10 10
14 14 15 15 15 15 15 15 16 16 16 17 18 19 21 21 21 22 22 21 21 21 21 21 21 21 20 20 20 19 18 17 16 14 13 12 12 11 10 10 10 10 10
13 14 15 15 15 15 15 15 15 16 16 16 17 19 20 20 20 21 21 21 20 20 20 21 21 21 20 20 20 19 18 17 16 15 13 12 11 11 10 10 10 10 9
12 13 15 15 15 15 15 15 16 16 16 16 17 19 20 20 19 20 20 20 21 21 21 21 20 20 20 20 20 18 17 16 16 15 13 12 11 10 9 9 9 9 9
11 13 14 15 15 15 16 16 16 16 16 17 17 19 19 19 19 19 20 20 21 21 21 21 20 20 20 20 19 18 17 16 15 15 13 11 10 9 9 9 9 9 9
10 12 14 15 15 16 16 16 16 16 16 17 17 18 19 19 19 19 20 20 20 21 21 20 20 20 20 20 19 18 16 15 15 14 13 11 10 9 9 9 9 9 9
10 12 14 15 15 15 16 16 16 16 17 17 17 17 18 18 18 19 19 19 20 20 20 20 19 19 19 19 18 17 16 15 15 14 13 12 11 10 10 9 9 9 9
11 12 14 15 15 15 15 16 16 16 17 17 17 17 17 17 18 18 18 18 18 18 18 18 18 18 18 17 16 16 15 15 15 15 14 13 12 11 11 11 11 10 11
11 13 14 15 15 15 15 16 16 16 17 17 17 17 17 17 17 17 17 17 17 17 17 17 17 17 17 16 16 15 15 15 15 15 15 14 13 12 12 12 12 12 12